Location: Bouysse
(45.3674°N, 1.8947°E)
Time: 18:07:47
(UTC+00:00)

GP-B - Pass Details

Date: 07 June 2020
Orbit: 631 x 635 km, 89.8° (Epoch: 08 July)

Event Time Altitude Azimuth Distance (km) Brightness Sun altitude
Rises 00:34:50 0° 10° (N) 2,942 8.1 -21.1°
Reaches altitude 10° 00:37:15 10° 20° (NNE) 2,028 6.8 -21.1°
Maximum altitude 00:41:16 32° 85° (E) 1,081 4.4 -20.9°
Enters shadow 00:42:59 24° 125° (SE) 1,303 4.5 -20.8°
